This is the latest recevied weather packets stored in our database for station/object WC4PEM-9. If no packets are shown the sender has not sent any weather packets the latest 10 day(s).
| Time | Temp. | Humidity | Pressure | Rain* | Wind** | Luminosity | Snow |
|---|---|---|---|---|---|---|---|
| 1787419951 | 33.33° C | 58% | 1015.9 hPa | 0 mm | - | - | - |
| 1787419651 | 33.33° C | 58% | 1016.1 hPa | 0 mm | - | - | - |
| 1787419351 | 33.33° C | 60% | 1015.9 hPa | 0 mm | - | - | - |
| 1787419260 | 33.33° C | 60% | 1016.1 hPa | 0 mm | - | - | - |
| 1787419051 | 33.33° C | 60% | 1016.1 hPa | 0 mm | - | - | - |
| 1787418888 | 33.33° C | 57% | 1016.1 hPa | 0 mm | - | - | - |
| 1787418751 | 33.33° C | 57% | 1016.1 hPa | 0 mm | - | - | - |
| 1787418451 | 32.78° C | 59% | 1015.9 hPa | 0 mm | - | - | - |
| 1787418151 | 32.78° C | 62% | 1016.1 hPa | 0 mm | - | - | - |
| 1787417851 | 32.78° C | 59% | 1016.1 hPa | 0 mm | - | - | - |
| 1787417611 | 32.78° C | 59% | 1016 hPa | 0 mm | - | - | - |
| 1787417551 | 32.78° C | 59% | 1016 hPa | 0 mm | - | - | - |
| 1787417251 | 32.78° C | 62% | 1016 hPa | 0 mm | - | - | - |
| 1787417070 | 32.78° C | 63% | 1016.3 hPa | 0 mm | - | - | - |
| 1787416951 | 32.78° C | 63% | 1016.3 hPa | 0 mm | - | - | - |
| 1787416766 | 32.22° C | 61% | 1016.5 hPa | 0 mm | - | - | - |
| 1787416651 | 32.22° C | 61% | 1016.5 hPa | 0 mm | - | - | - |
| 1787416454 | 32.22° C | 62% | 1016.6 hPa | 0 mm | - | - | - |
| 1787416351 | 32.22° C | 62% | 1016.6 hPa | 0 mm | - | - | - |
| 1787416220 | 32.22° C | 62% | 1016.7 hPa | 0 mm | - | - | - |
| 1787416051 | 32.22° C | 62% | 1016.7 hPa | 0 mm | - | - | - |
| 1787415751 | 32.22° C | 64% | 1016.9 hPa | 0 mm | - | - | - |
| 1787415598 | 32.22° C | 63% | 1016.8 hPa | 0 mm | - | - | - |
| 1787415451 | 32.22° C | 63% | 1016.8 hPa | 0 mm | - | - | - |
| 1787415269 | 32.22° C | 63% | 1016.7 hPa | 0 mm | - | - | - |
* Rain latest hour (hover to see other rain measurements)
** Current wind speed in m/s (hover to see current wind gust speed)